Printer-friendly version

IAU Minor Planet Center

Minor Planet Center

(354) Eleonora

Orbital Elements

The following orbital elements are taken from MPC 31001:
  (354) Eleonora
Epoch 2007 Apr. 10.0 TT = JDT 2454200.5                 Goffin
M 126.32742              (2000.0)            P               Q
n   0.21045259     Peri.    6.99306     -0.83857339     -0.50635388
a   2.7991953      Node   140.41562     +0.48331423     -0.86171858
e   0.1137220      Incl.   18.38698     +0.25140013     -0.03235495
P   4.68           H    6.44          G   0.37           U   0
From 1700 observations at 75 oppositions, 1893-1997, mean residual 0".55.
An explanation of the orbital elements is available.

These orbital elements are also available in forms suitable for loading into a number of popular planetarium-type software programs.


Ephemeris

The following ephemeris is at intervals of five days. A daily ephemeris covering the same time interval is also available.

Personalized ephemerides for this object (and others) can be generated using the MPES.

Date    TT    R. A. (2000) Decl.     Delta      r     Elong.  Phase     V
 
2007 05 01    20 31.57   -07 51.1    2.820    3.026    91.9    19.4    11.8
2007 05 06    20 34.48   -07 39.6    2.755    3.029    95.9    19.3    11.8
2007 05 11    20 36.95   -07 29.9    2.690    3.033   100.0    19.1    11.7
2007 05 16    20 38.95   -07 22.2    2.626    3.037   104.2    18.8    11.7
2007 05 21    20 40.47   -07 16.9    2.563    3.040   108.6    18.4    11.6
2007 05 26    20 41.50   -07 14.3    2.501    3.044   113.0    17.8    11.5
2007 05 31    20 42.00   -07 14.5    2.442    3.047   117.6    17.1    11.5
2007 06 05    20 41.98   -07 17.9    2.385    3.050   122.3    16.3    11.4
2007 06 10    20 41.41   -07 24.7    2.331    3.054   127.2    15.4    11.3
2007 06 15    20 40.31   -07 35.1    2.281    3.057   132.1    14.3    11.3
2007 06 20    20 38.67   -07 49.2    2.235    3.060   137.2    13.0    11.2
2007 06 25    20 36.53   -08 07.1    2.194    3.063   142.4    11.7    11.1
2007 06 30    20 33.91   -08 28.7    2.158    3.066   147.7    10.2    11.0
2007 07 05    20 30.85   -08 53.9    2.128    3.069   153.0     8.6    11.0
2007 07 10    20 27.43   -09 22.5    2.104    3.072   158.3     7.0    10.9
2007 07 15    20 23.69   -09 54.3    2.086    3.074   163.5     5.4    10.8
2007 07 20    20 19.75   -10 28.6    2.075    3.077   168.2     3.9    10.7
2007 07 25    20 15.68   -11 05.1    2.072    3.080   171.3     2.9    10.7
2007 07 30    20 11.60   -11 43.1    2.075    3.082   171.0     2.9    10.7
2007 08 04    20 07.61   -12 22.0    2.086    3.084   167.6     4.1    10.8
2007 08 09    20 03.79   -13 01.2    2.103    3.087   162.8     5.6    10.8
2007 08 14    20 00.25   -13 40.2    2.128    3.089   157.6     7.2    10.9
2007 08 19    19 57.08   -14 18.4    2.159    3.091   152.2     8.8    11.0
2007 08 24    19 54.34   -14 55.3    2.197    3.093   146.9    10.3    11.1
2007 08 29    19 52.09   -15 30.6    2.240    3.095   141.5    11.7    11.2
2007 09 03    19 50.36   -16 03.9    2.288    3.097   136.3    13.0    11.3
2007 09 08    19 49.20   -16 35.1    2.342    3.099   131.1    14.2    11.3
2007 09 13    19 48.60   -17 03.9    2.399    3.101   126.1    15.2    11.4
2007 09 18    19 48.59   -17 30.3    2.460    3.102   121.2    16.1    11.5
2007 09 23    19 49.15   -17 54.1    2.525    3.104   116.4    16.8    11.6
2007 09 28    19 50.27   -18 15.4    2.592    3.105   111.7    17.5    11.7
2007 10 03    19 51.92   -18 34.2    2.661    3.107   107.1    17.9    11.7
2007 10 08    19 54.09   -18 50.5    2.732    3.108   102.6    18.3    11.8
2007 10 13    19 56.75   -19 04.2    2.804    3.109    98.3    18.5    11.9
2007 10 18    19 59.87   -19 15.5    2.877    3.110    94.0    18.6    11.9

Back to Bright Minor Planets

Astronomical Headlines Index

MPC


Valid HTML 4.01!